Vernal, UT

3:58 PM MST on November 11, 2019 (GMT -0700)
Vernal

Weather History for KVEL - June, 2019

Change the Weather History Date:

Sunday, June 9, 2019

  Actual Average Record
Temperature  
Mean Temperature 50 °F 63 °F  
Max Temperature 66 °F 78 °F 96 °F (1973)
Min Temperature 34 °F 49 °F 29 °F (1950)
Degree Days  
Heating Degree Days 14 3  
Month to date heating degree days 30 37  
Since 1 June heating degree days 30 37  
Since 1 July heating degree days 7511 7185  
Cooling Degree Days 0 2  
Month to date cooling degree days 3 13  
Year to date cooling degree days 4 22  
Since 1 June cooling degree days 3 13  
Moisture  
Dew Point 23 °F    
Average Humidity 33    
Maximum Humidity 70    
Minimum Humidity 15    
Precipitation  
Precipitation 0.00 in 0.03 in 0.52 in (2006)
Month to date precipitation T 0.27  
Year to date precipitation 7.42 3.68  
Sea Level Pressure  
Sea Level Pressure 30.37 in    
Wind  
Wind Speed 4 mph ()    
Max Wind Speed 13 mph    
Max Gust Speed 20 mph    
Visibility 10.0 miles    
Events      
T = Trace of Precipitation, MM = Missing Value Source: Averaged Metar Reports

Daily Weather History Graph

Daily Weather History Graph

Search for Another Location

Airport or City:

Astronomy

Jun. 09, 2019 Rise Set
Actual Time 5:47 AM MDT 8:47 PM MDT
Civil Twilight 5:14 AM MDT 9:20 PM MDT
Nautical Twilight 4:32 AM MDT 10:02 PM MDT
Astronomical Twilight 3:44 AM MDT 10:50 PM MDT
Moon 12:30 PM MDT (6/9) 1:28 AM MDT (6/9)
Length of Visible Light 16h 05m
Length of Day
14h 59m
Waxing Crescent, 44% of the Moon is Illuminated
Jun 9
Waxing Crescent
Jun 10
First Quarter
Jun 17
Full
Jun 25
Last Quarter
Jul 2
New

Hourly Weather History & Observations

Time (MDT) Temp. Windchill Dew Point Humidity Pressure Visibility Wind Dir Wind Speed Gust Speed Precip Events Conditions
12:53 AM 46.0 °F 41.9 °F 21.9 °F 39% 30.28 in 10.0 mi NE 8.1 mph - N/A   Clear
1:53 AM 43.0 °F 38.8 °F 21.9 °F 43% 30.32 in 10.0 mi ENE 6.9 mph - N/A   Clear
2:53 AM 43.0 °F 39.5 °F 21.9 °F 43% 30.31 in 10.0 mi NNE 5.8 mph - N/A   Clear
3:53 AM 41.0 °F 36.4 °F 21.9 °F 47% 30.34 in 10.0 mi NE 6.9 mph - N/A   Clear
4:53 AM 39.0 °F - 23.0 °F 53% 30.36 in 10.0 mi Calm Calm - N/A   Clear
5:53 AM 34.0 °F 31.0 °F 25.0 °F 70% 30.40 in 10.0 mi West 3.5 mph - N/A   Clear
6:53 AM 41.0 °F 39.0 °F 26.1 °F 55% 30.40 in 10.0 mi WSW 3.5 mph - N/A   Clear
7:53 AM 48.0 °F - 24.1 °F 39% 30.40 in 10.0 mi East 4.6 mph - N/A   Clear
8:53 AM 53.1 °F - 21.0 °F 29% 30.41 in 10.0 mi Calm Calm - N/A   Clear
9:53 AM 53.1 °F - 19.0 °F 26% 30.44 in 10.0 mi Variable 3.5 mph - N/A   Clear
10:53 AM 55.9 °F - 21.0 °F 26% 30.43 in 10.0 mi Variable 6.9 mph - N/A   Clear
11:53 AM 57.9 °F - 23.0 °F 26% 30.42 in 10.0 mi South 4.6 mph - N/A   Clear
12:53 PM 60.1 °F - 21.9 °F 23% 30.40 in 10.0 mi South 3.5 mph - N/A   Clear
1:53 PM 63.0 °F - 24.1 °F 23% 30.39 in 10.0 mi South 9.2 mph - N/A   Clear
2:53 PM 63.0 °F - 19.0 °F 18% 30.38 in 10.0 mi ESE 4.6 mph - N/A   Clear
3:53 PM 64.9 °F - 19.0 °F 17% 30.38 in 10.0 mi Variable 3.5 mph - N/A   Clear
4:53 PM 66.0 °F - 17.1 °F 15% 30.37 in 10.0 mi NNW 5.8 mph - N/A   Clear
5:53 PM 66.9 °F - 19.0 °F 16% 30.37 in 10.0 mi Variable 3.5 mph - N/A   Clear
6:53 PM 66.0 °F - 17.1 °F 15% 30.34 in 10.0 mi Calm Calm - N/A   Clear
7:53 PM 64.9 °F - 19.9 °F 18% 30.32 in 10.0 mi Calm Calm - N/A   Clear
8:53 PM 57.9 °F - 26.1 °F 30% 30.32 in 10.0 mi Calm Calm - N/A   Clear
9:53 PM 53.1 °F - 30.0 °F 41% 30.36 in 10.0 mi NW 5.8 mph - N/A   Clear
10:53 PM 52.0 °F - 28.9 °F 41% 30.36 in 10.0 mi NW 6.9 mph - N/A   Clear
11:53 PM 48.9 °F - 30.0 °F 48% 30.36 in 10.0 mi West 5.8 mph - N/A   Clear